HUANGPU-1 (44705 NORAD) Tracking and Keplerian Element Data

This shows tracking and keplerian element data for the satellite.

Feedback or suggestion? Click here.




ElementValue
Catalog44705
NameHUANGPU-1
Epoch Orbit2223
Epoch Day88.1825365
Epoch Year2020
RAAN165.4509
Inclination97.4663
Eccentricity0.0017026
Argument of Perigee125.6122
Mean Anonmoly319.9171
Mean Motion15.23920029
Decay Rate1.176E-05
L11 44705U 19072C 20088.18253650 .00001176 00000-0 51490-4 0 9995
L22 44705 97.4663 165.4509 0017026 125.6122 319.9171 15.23920029 22235

Live tracking and technical data element details for HUANGPU-1 (NORAD 44705). HUANGPU-1 can be tracked NOW for your location showing map with azimuth and elevation plus other details from your city location.

Track the satellite on the map from your city or location and see movement details for azimuth, elevation, latitude, longitude, range, height, and movement on the map or in text.







IsCatalogInMostPopularTable: catalog: 44705, numindb: 41
Update: records affected: 1



GetName: 44705 HUANGPU-1

Hit Count: updated at: Sat, 28 Mar 2020 20:31:33 GMT